Regional Weather Roundup
Issued by NWS

Home | Current Version | Previous Version | Graphics & Text | Print | Product List | Glossary On
Versions: 1 2 3 4 5 6 7 8 9 10 11 12 13 14 15 16 17 18 19 20 21 22 23 24 25 26 27 28 29 30 31 32 33 34 35 36 37 38 39 40 41 42 43 44 45 46 47 48 49 50
000
ASUS45 KSLC 182010
RWRUT

UTAH REGIONAL WEATHER ROUNDUP
NATIONAL WEATHER SERVICE SALT LAKE CITY UT
200 PM MDT THU SEP 18 2014

UTZ001>011-023>025-182100-

NORTHERN UTAH

CITY           SKY/WX    TMP DP  RH WIND       PRES   REMARKS
HILL AFB       MOSUNNY   88  47  24 S15       29.89F
LOGAN          SUNNY     88  51  28 S17G23    29.86F
OGDEN          PTSUNNY   86  45  23 S14       29.86F
PROVO AIRPORT  SUNNY     90  54  29 VRB5      29.91F
SALT LAKE CITY MOSUNNY   89  44  20 SE22G30   29.85F
VERNAL         SUNNY     79  46  31 VRB5      30.00F
WENDOVER       MOSUNNY   90  48  24 SE14      29.82F
HEBER CITY     MOSUNNY   86  41  20 W6        29.96F
WEST JORDAN    SUNNY     88  46  23 SE14G21   29.90F

$$

UTZ012>022-026-027-182100-

SOUTHERN UTAH

CITY           SKY/WX    TMP DP  RH WIND       PRES   REMARKS
BRYCE CANYON   MOSUNNY   72  46  39 SE14G22   30.16F
CEDAR CITY     MOSUNNY   81  49  32 SW16      29.98F
MILFORD        SUNNY     84  50  30 S10G17    29.93F
MOAB/CYNLANDS  SUNNY     85  45  24 CALM      29.93F
PRICE          SUNNY     81  44  27 S8G18     30.04F
ST GEORGE      PTCLDY    91  54  27 NW8       29.82F

$$

REGIONAL REPORTS     COLORADO/ARIZONA

CITY           SKY/WX    TMP DP  RH WIND       PRES   REMARKS
CRAIG, CO      SUNNY     84  37  18 NW7       30.04F
GRAND JUNCTION SUNNY     84  44  24 W3        29.96F
RIFLE          SUNNY     82  39  21 W8        30.00F
MONTROSE       SUNNY     83  41  22 N8        30.03F
CORTEZ         SUNNY     80  46  30 S7        30.05F
PAGE, AZ       SUNNY     87  47  24 N9        29.92F
GRAND CANYON   PTSUNNY   73  49  42 S3        30.10F
KINGMAN        MOSUNNY   88  57  34 W7G21     29.89F
FLAGSTAFF      MOSUNNY   72  49  44 E8        30.13F

$$

REGIONAL REPORTS    NEVADA/IDAHO/WYOMING

CITY           SKY/WX    TMP DP  RH WIND       PRES   REMARKS
LAS VEGAS, NV  MOSUNNY   97  38  13 S20G28    29.72F HX  92
ELY            CLOUDY    77  47  34 S16G26    29.99F
ELKO           PTSUNNY   73  53  49 NE9       29.87F THUNDER
POCATELLO, ID  PTSUNNY   81  47  30 W21       29.87F
BURLEY         MOSUNNY   79  49  34 W13G20    29.87F
EVANSTON, WY   PTSUNNY  N/A N/A N/A S18G28    30.07F
ROCK SPRINGS   SUNNY     83  31  15 SW14G24   30.05F

$$


USA.gov is the U.S. government's official web portal to all federal, state and local government web resources and services.